Tacoma, WA

1:03 PM PDT on September 25, 2016 (GMT -0700)
McChord Air Force Base

Weather History for KTCM - May, 2014

Change the Weather History Date:

Wednesday, May 14, 2014

  Actual Average Record
Temperature  
Mean Temperature 64 °F -  
Max Temperature 81 °F 61 °F 88 °F (1973)
Min Temperature 46 °F 42 °F 30 °F (1964)
Degree Days  
Heating Degree Days 2    
Growing Degree Days 14 (Base 50)    
Moisture  
Dew Point 50 °F    
Average Humidity 62    
Maximum Humidity 99    
Minimum Humidity 33    
Precipitation  
Precipitation 0.00 in - - ()
Sea Level Pressure  
Sea Level Pressure 30.24 in    
Wind  
Wind Speed 4 mph (ENE)    
Max Wind Speed 13 mph    
Max Gust Speed -    
Visibility 10 miles    
Events      
Averages and records for this station are not official NWS values.
T = Trace of Precipitation, MM = Missing Value Source: NWS Daily Summary

Daily Weather History Graph

Daily Weather History Graph

Search for Another Location

Airport or City:

Trip Planner

Search our weather history database for the weather conditions in past years. The results will help you decide how hot, cold, wet, or windy it might be!

Date:

Astronomy

May. 14, 2014 Rise Set
Actual Time 5:35 AM PDT 8:38 PM PDT
Civil Twilight 4:59 AM PDT 9:14 PM PDT
Nautical Twilight 4:12 AM PDT 10:01 PM PDT
Astronomical Twilight 3:16 AM PDT 10:58 PM PDT
Moon 8:47 PM PDT (5/14) 5:41 AM PDT (5/14)
Length of Visible Light 16h 15m
Length of Day
15h 02m
Full, 100% of the Moon is Illuminated
May 14
Full
May 14
Full
May 21
Last Quarter
May 28
New
Jun 5
First Quarter

Hourly Weather History & Observations

Time (PDT) Temp. Dew Point Humidity Pressure Visibility Wind Dir Wind Speed Gust Speed Precip Events Conditions
12:58 AM 56.3 °F 47.3 °F 72% 30.33 in 10.0 mi NNE 3.5 mph - N/A   Clear
1:58 AM 52.0 °F 48.4 °F 88% 30.33 in 10.0 mi South 2.3 mph - N/A   Clear
2:58 AM 50.0 °F 47.1 °F 90% 30.32 in 10.0 mi Calm Calm - N/A   Clear
3:58 AM 48.9 °F 47.7 °F 95% 30.32 in 10.0 mi South 3.5 mph - N/A   Clear
4:58 AM 47.5 °F 47.1 °F 99% 30.32 in 10.0 mi South 2.3 mph - N/A   Clear
5:58 AM 46.6 °F 46.2 °F 99% 30.32 in 10.0 mi ESE 2.3 mph - N/A   Clear
6:58 AM 50.5 °F 50.4 °F 99% 30.33 in 10.0 mi Calm Calm - N/A   Clear
7:58 AM 57.9 °F 52.2 °F 81% 30.32 in 10.0 mi East 1.2 mph - N/A   Clear
8:58 AM 64.9 °F 51.1 °F 61% 30.32 in 10.0 mi NE 5.8 mph - N/A   Clear
9:58 AM 68.7 °F 51.8 °F 55% 30.31 in 10.0 mi Variable 3.5 mph - N/A   Clear
10:58 AM 72.1 °F 52.5 °F 50% 30.30 in 10.0 mi Variable 3.5 mph - N/A   Clear
11:58 AM 75.2 °F 50.7 °F 42% 30.28 in 10.0 mi North 9.2 mph - N/A   Clear
12:58 PM 76.3 °F 50.9 °F 41% 30.26 in 10.0 mi NNE 9.2 mph - N/A   Clear
1:58 PM 78.4 °F 51.8 °F 39% 30.24 in 10.0 mi NE 9.2 mph - N/A   Clear
2:58 PM 79.5 °F 51.3 °F 37% 30.23 in 10.0 mi NE 10.4 mph - N/A   Clear
3:58 PM 81.0 °F 50.2 °F 34% 30.21 in 10.0 mi NNE 10.4 mph - N/A   Clear
4:58 PM 81.0 °F 51.3 °F 36% 30.18 in 10.0 mi NE 6.9 mph - N/A   Clear
5:58 PM 80.6 °F 49.6 °F 34% 30.16 in 10.0 mi NNE 6.9 mph - N/A   Clear
6:55 PM 77.9 °F 46.4 °F 33% 30.14 in 10.0 mi NNE 12.7 mph - N/A   Clear
7:55 PM 74.1 °F 47.8 °F 39% 30.14 in 10.0 mi NNE 8.1 mph - N/A   Clear
8:58 PM 70.2 °F 48.2 °F 46% 30.13 in 10.0 mi NE 4.6 mph - N/A   Clear
9:58 PM 63.5 °F 50.5 °F 63% 30.13 in 10.0 mi SSE 2.3 mph - N/A   Clear
10:58 PM 59.0 °F 50.9 °F 74% 30.13 in 10.0 mi South 2.3 mph - N/A   Clear
11:58 PM 58.1 °F 51.4 °F 78% 30.12 in 10.0 mi SSE 2.3 mph - N/A   Clear